Hourly Weather Runice

Today, 22 April, Thursday

Time Temperature Precipitation Wind Pressure Humidity
00:00 +7°C° 0 mm 3 mps 745 mmHg 84%
01:00 +7°C° 0 mm 3 mps 745 mmHg 85%
02:00 +5°C° 0 mm 3 mps 745 mmHg 85%
03:00 +5°C° 0.1 mm 3 mps 745 mmHg 87%
04:00 +5°C° 0.1 mm 3 mps 745 mmHg 89%
05:00 +5°C° 0.1 mm 3 mps 745 mmHg 91%
06:00 +5°C° 0.1 mm 4 mps 746 mmHg 90%
07:00 +4°C° 0.1 mm 4 mps 746 mmHg 89%
08:00 +3°C° 0.1 mm 5 mps 747 mmHg 88%
09:00 +5°C° 0 mm 5 mps 747 mmHg 78%
10:00 +5°C° 0 mm 6 mps 748 mmHg 69%
11:00 +7°C° 0 mm 6 mps 748 mmHg 59%
12:00 +7°C° 0 mm 6 mps 748 mmHg 54%
13:00 +8°C° 0 mm 6 mps 748 mmHg 50%
14:00 +8°C° 0 mm 6 mps 748 mmHg 45%
15:00 +8°C° 0 mm 6 mps 748 mmHg 48%
16:00 +8°C° 0 mm 6 mps 748 mmHg 50%
17:00 +8°C° 0 mm 6 mps 748 mmHg 52%
18:00 +7°C° 0 mm 6 mps 748 mmHg 57%
19:00 +5°C° 0 mm 5 mps 749 mmHg 63%
20:00 +4°C° 0 mm 4 mps 749 mmHg 68%
21:00 +3°C° 0 mm 4 mps 749 mmHg 71%
22:00 +2°C° 0 mm 5 mps 749 mmHg 74%
23:00 +1°C° 0 mm 5 mps 749 mmHg 77%

Tomorrow, 23 April, Friday

Time Temperature Precipitation Wind Pressure Humidity
00:00 +1°C° 0 mm 5 mps 749 mmHg 76%
01:00 0°C° 0 mm 5 mps 749 mmHg 75%
02:00 0°C° 0 mm 5 mps 749 mmHg 74%
03:00 -1°C° 0 mm 5 mps 750 mmHg 75%
04:00 -1°C° 0 mm 5 mps 750 mmHg 75%
05:00 -1°C° 0 mm 5 mps 750 mmHg 75%
06:00 0°C° 0 mm 5 mps 750 mmHg 74%
07:00 +1°C° 0 mm 5 mps 751 mmHg 72%
08:00 +1°C° 0 mm 5 mps 751 mmHg 71%
09:00 +3°C° 0.2 mm 6 mps 751 mmHg 65%
10:00 +4°C° 0.2 mm 6 mps 751 mmHg 60%
11:00 +5°C° 0.2 mm 7 mps 751 mmHg 54%
12:00 +5°C° 0.2 mm 7 mps 751 mmHg 53%
13:00 +6°C° 0.2 mm 7 mps 751 mmHg 52%
14:00 +6°C° 0.2 mm 7 mps 751 mmHg 51%
15:00 +7°C° 0.3 mm 6 mps 751 mmHg 55%
16:00 +5°C° 0.3 mm 6 mps 751 mmHg 60%
17:00 +6°C° 0.3 mm 5 mps 750 mmHg 65%
18:00 +3°C° 0.6 mm 5 mps 751 mmHg 73%
19:00 +1°C° 0.6 mm 4 mps 751 mmHg 82%
20:00 0°C° 0.6 mm 4 mps 751 mmHg 90%
21:00 -1°C° 0 mm 4 mps 752 mmHg 89%
22:00 -1°C° 0 mm 4 mps 752 mmHg 87%
23:00 -2°C° 0 mm 5 mps 752 mmHg 85%

Day after tomorrow, 24 April, Saturday

Time Temperature Precipitation Wind Pressure Humidity
00:00 -2°C° 0 mm 4 mps 752 mmHg 87%
01:00 -3°C° 0 mm 4 mps 753 mmHg 88%
02:00 -4°C° 0 mm 3 mps 753 mmHg 90%
03:00 -4°C° 0 mm 3 mps 753 mmHg 89%
04:00 -4°C° 0 mm 3 mps 753 mmHg 89%
05:00 -4°C° 0 mm 3 mps 753 mmHg 89%
06:00 -2°C° 0 mm 4 mps 753 mmHg 83%
07:00 -1°C° 0 mm 4 mps 753 mmHg 77%
08:00 +1°C° 0 mm 4 mps 753 mmHg 71%
09:00 +2°C° 0.1 mm 5 mps 753 mmHg 63%
10:00 +4°C° 0.1 mm 6 mps 753 mmHg 55%
11:00 +5°C° 0.1 mm 6 mps 753 mmHg 47%
12:00 +7°C° 0 mm 6 mps 753 mmHg 45%
13:00 +7°C° 0 mm 6 mps 753 mmHg 42%
14:00 +8°C° 0 mm 6 mps 753 mmHg 40%
15:00 +7°C° 0.1 mm 6 mps 753 mmHg 43%
16:00 +7°C° 0.1 mm 5 mps 753 mmHg 47%
17:00 +7°C° 0.1 mm 5 mps 752 mmHg 50%
18:00 +5°C° 0.1 mm 4 mps 753 mmHg 61%
19:00 +3°C° 0.1 mm 3 mps 753 mmHg 71%
20:00 +2°C° 0.1 mm 2 mps 753 mmHg 82%
21:00 +2°C° 0.1 mm 2 mps 753 mmHg 85%
22:00 +1°C° 0.1 mm 2 mps 753 mmHg 89%
23:00 +1°C° 0.1 mm 2 mps 753 mmHg 92%

25 April, Sunday

Time Temperature Precipitation Wind Pressure Humidity
00:00 -1°C° 0 mm 2 mps 753 mmHg 89%
01:00 -2°C° 0 mm 3 mps 753 mmHg 86%
02:00 -2°C° 0 mm 3 mps 753 mmHg 84%
03:00 -4°C° 0 mm 3 mps 754 mmHg 85%
04:00 -4°C° 0 mm 3 mps 754 mmHg 87%
05:00 -4°C° 0 mm 3 mps 754 mmHg 89%
06:00 -2°C° 0 mm 3 mps 754 mmHg 83%
07:00 -1°C° 0 mm 4 mps 754 mmHg 78%
08:00 0°C° 0 mm 4 mps 754 mmHg 72%
09:00 +2°C° 0.1 mm 5 mps 754 mmHg 65%
10:00 +3°C° 0.1 mm 5 mps 754 mmHg 57%
11:00 +5°C° 0.1 mm 5 mps 754 mmHg 50%
12:00 +6°C° 0.1 mm 5 mps 754 mmHg 48%
13:00 +5°C° 0.1 mm 6 mps 753 mmHg 46%
14:00 +7°C° 0.1 mm 6 mps 753 mmHg 45%
15:00 +5°C° 0.2 mm 6 mps 753 mmHg 50%
16:00 +5°C° 0.2 mm 6 mps 753 mmHg 55%
17:00 +4°C° 0.2 mm 6 mps 752 mmHg 60%
18:00 +3°C° 0.2 mm 5 mps 753 mmHg 67%
19:00 +1°C° 0.2 mm 4 mps 753 mmHg 74%
20:00 +1°C° 0.2 mm 3 mps 753 mmHg 81%
21:00 0°C° 0 mm 3 mps 753 mmHg 82%
22:00 -1°C° 0 mm 3 mps 753 mmHg 82%
23:00 -2°C° 0 mm 3 mps 753 mmHg 83%

26 April, Monday

Time Temperature Precipitation Wind Pressure Humidity
00:00 -2°C° 0 mm 3 mps 753 mmHg 85%
01:00 -4°C° 0 mm 3 mps 753 mmHg 87%
02:00 -5°C° 0 mm 3 mps 753 mmHg 89%
03:00 -5°C° 0 mm 3 mps 753 mmHg 89%
04:00 -5°C° 0 mm 3 mps 753 mmHg 89%
05:00 -5°C° 0 mm 3 mps 753 mmHg 89%
06:00 -2°C° 0 mm 3 mps 753 mmHg 81%
07:00 -1°C° 0 mm 3 mps 753 mmHg 73%
08:00 0°C° 0 mm 4 mps 753 mmHg 65%
09:00 +1°C° 0.1 mm 4 mps 753 mmHg 61%
10:00 +4°C° 0.1 mm 4 mps 753 mmHg 58%
11:00 +5°C° 0.1 mm 5 mps 752 mmHg 55%
12:00 +6°C° 0.2 mm 5 mps 752 mmHg 52%
13:00 +6°C° 0.2 mm 5 mps 752 mmHg 50%
14:00 +7°C° 0.2 mm 5 mps 752 mmHg 48%
15:00 +7°C° 0.1 mm 5 mps 751 mmHg 49%
16:00 +7°C° 0.1 mm 5 mps 751 mmHg 50%
17:00 +7°C° 0.1 mm 5 mps 751 mmHg 52%
18:00 +5°C° 0 mm 4 mps 751 mmHg 59%
19:00 +4°C° 0 mm 3 mps 751 mmHg 66%
20:00 +3°C° 0 mm 2 mps 751 mmHg 74%
21:00 +3°C° 0 mm 1 mps 751 mmHg 75%
22:00 +3°C° 0 mm 1 mps 751 mmHg 76%
23:00 +2°C° 0 mm 1 mps 751 mmHg 78%

27 April, Tuesday

Time Temperature Precipitation Wind Pressure Humidity
00:00 +2°C° 0 mm 1 mps 751 mmHg 78%
01:00 +2°C° 0 mm 1 mps 751 mmHg 79%
02:00 -1°C° 0 mm 2 mps 751 mmHg 79%
03:00 -1°C° 0 mm 2 mps 751 mmHg 79%
04:00 -1°C° 0 mm 2 mps 750 mmHg 79%
05:00 -1°C° 0 mm 2 mps 750 mmHg 79%
06:00 +2°C° 0 mm 2 mps 750 mmHg 72%
07:00 +3°C° 0 mm 2 mps 750 mmHg 66%
08:00 +5°C° 0 mm 2 mps 750 mmHg 60%
09:00 +6°C° 0 mm 2 mps 749 mmHg 55%
10:00 +8°C° 0 mm 3 mps 749 mmHg 51%
11:00 +9°C° 0 mm 3 mps 748 mmHg 46%
12:00 +10°C° 0 mm 4 mps 748 mmHg 46%
13:00 +10°C° 0 mm 4 mps 747 mmHg 45%
14:00 +10°C° 0 mm 5 mps 746 mmHg 45%
15:00 +10°C° 0 mm 5 mps 746 mmHg 48%
16:00 +11°C° 0 mm 4 mps 745 mmHg 51%
17:00 +12°C° 0 mm 4 mps 744 mmHg 54%
18:00 +10°C° 0 mm 4 mps 744 mmHg 59%
19:00 +8°C° 0 mm 4 mps 743 mmHg 63%
20:00 +7°C° 0 mm 4 mps 743 mmHg 68%
21:00 +7°C° 0 mm 4 mps 742 mmHg 69%
22:00 +6°C° 0 mm 4 mps 742 mmHg 69%
23:00 +6°C° 0 mm 4 mps 741 mmHg 70%
Show more